Location: Ertinghausen
(51.6624°N, 9.7874°E)
Time: 10:55:58
(UTC+00:00)

Resurs 1-4 Rocket - Pass Details

Date: 23 May 2024
Orbit: 798 x 813 km, 98.7° (Epoch: 23 June)

Event Time Altitude Azimuth Distance (km) Brightness Sun altitude
Rises 00:24:38 0° 23° (NNE) 3,320 7.1 -16.2°
Reaches altitude 10° 00:27:20 10° 35° (NE) 2,384 5.7 -16.1°
Maximum altitude 00:31:46 27° 93° (E) 1,502 3.7 -15.9°
Enters shadow 00:36:02 11° 150° (SSE) 2,328 4.1 -15.7°
